When you browse on this site, cookies collect data to enhance your experience and personalize the content and advertising you see.
Visit our Privacy Policy to learn more. By continuing to use the site, you agree to this use of cookies and data.

Hourly Weather Belize

Today, 25 September, Friday

Time Temperature Precipitation Wind Pressure Humidity
00:00 +26°C° 0 mm 4 mps 758 mmHg 97%
01:00 +26°C° 0 mm 4 mps 758 mmHg 97%
02:00 +26°C° 0 mm 3 mps 757 mmHg 97%
03:00 +26°C° 0 mm 3 mps 757 mmHg 97%
04:00 +26°C° 0.6 mm 3 mps 757 mmHg 97%
05:00 +26°C° 0.6 mm 3 mps 758 mmHg 97%
06:00 +26°C° 0 mm 2 mps 758 mmHg 97%
07:00 +27°C° 0.4 mm 2 mps 759 mmHg 94%
08:00 +28°C° 0.4 mm 1 mps 759 mmHg 92%
09:00 +29°C° 0.4 mm 1 mps 759 mmHg 89%
10:00 +31°C° 0 mm 1 mps 759 mmHg 78%
11:00 +32°C° 0 mm 1 mps 759 mmHg 67%
12:00 +35°C° 0 mm 2 mps 759 mmHg 56%
13:00 +35°C° 0 mm 2 mps 758 mmHg 57%
14:00 +35°C° 0 mm 3 mps 757 mmHg 58%
15:00 +35°C° 0 mm 4 mps 757 mmHg 59%
16:00 +33°C° 0.3 mm 4 mps 757 mmHg 71%
17:00 +30°C° 0.3 mm 5 mps 757 mmHg 83%
18:00 +28°C° 0.3 mm 5 mps 757 mmHg 95%
19:00 +28°C° 0.9 mm 5 mps 758 mmHg 96%
20:00 +28°C° 0.9 mm 5 mps 758 mmHg 97%
21:00 +27°C° 0.9 mm 6 mps 759 mmHg 98%
22:00 +27°C° 1.7 mm 6 mps 759 mmHg 97%
23:00 +27°C° 1.7 mm 6 mps 759 mmHg 97%

Tomorrow, 26 September, Saturday

Time Temperature Precipitation Wind Pressure Humidity
00:00 +27°C° 1.7 mm 6 mps 759 mmHg 97%
01:00 +27°C° 1.2 mm 5 mps 758 mmHg 97%
02:00 +27°C° 1.2 mm 5 mps 758 mmHg 97%
03:00 +27°C° 1.2 mm 5 mps 757 mmHg 97%
04:00 +27°C° 1.6 mm 4 mps 758 mmHg 98%
05:00 +27°C° 1.6 mm 4 mps 758 mmHg 98%
06:00 +27°C° 1.6 mm 3 mps 758 mmHg 98%
07:00 +28°C° 1.2 mm 3 mps 758 mmHg 94%
08:00 +29°C° 1.2 mm 3 mps 759 mmHg 90%
09:00 +31°C° 1.2 mm 2 mps 759 mmHg 86%
10:00 +34°C° 0.1 mm 2 mps 759 mmHg 74%
11:00 +35°C° 0.1 mm 3 mps 758 mmHg 62%
12:00 +37°C° 0.1 mm 3 mps 758 mmHg 50%
13:00 +37°C° 0 mm 3 mps 757 mmHg 51%
14:00 +36°C° 0 mm 3 mps 757 mmHg 53%
15:00 +36°C° 0 mm 4 mps 756 mmHg 54%
16:00 +34°C° 0 mm 4 mps 756 mmHg 65%
17:00 +32°C° 0 mm 4 mps 756 mmHg 76%
18:00 +29°C° 0 mm 4 mps 756 mmHg 86%
19:00 +29°C° 0 mm 4 mps 757 mmHg 90%
20:00 +28°C° 0 mm 5 mps 757 mmHg 93%
21:00 +27°C° 0 mm 5 mps 758 mmHg 97%
22:00 +28°C° 0.1 mm 5 mps 758 mmHg 97%
23:00 +28°C° 0.1 mm 5 mps 758 mmHg 97%

Day after tomorrow, 27 September, Sunday

Time Temperature Precipitation Wind Pressure Humidity
00:00 +28°C° 0.1 mm 5 mps 757 mmHg 97%
01:00 +27°C° 0.2 mm 5 mps 757 mmHg 97%
02:00 +27°C° 0.2 mm 5 mps 757 mmHg 98%
03:00 +27°C° 0.2 mm 6 mps 756 mmHg 98%
04:00 +27°C° 0.3 mm 6 mps 757 mmHg 98%
05:00 +27°C° 0.3 mm 6 mps 757 mmHg 98%
06:00 +27°C° 0.3 mm 6 mps 757 mmHg 98%
07:00 +29°C° 0 mm 6 mps 757 mmHg 92%
08:00 +30°C° 0 mm 6 mps 758 mmHg 85%
09:00 +33°C° 0 mm 6 mps 758 mmHg 78%
10:00 +34°C° 0 mm 6 mps 758 mmHg 70%
11:00 +35°C° 0 mm 5 mps 757 mmHg 61%
12:00 +37°C° 0 mm 5 mps 757 mmHg 52%
13:00 +36°C° 0 mm 5 mps 756 mmHg 54%
14:00 +36°C° 0 mm 4 mps 755 mmHg 55%
15:00 +35°C° 0 mm 4 mps 755 mmHg 57%
16:00 +33°C° 0 mm 4 mps 755 mmHg 67%
17:00 +32°C° 0 mm 4 mps 755 mmHg 77%
18:00 +29°C° 0 mm 4 mps 755 mmHg 88%
19:00 +28°C° 0 mm 4 mps 756 mmHg 91%
20:00 +28°C° 0 mm 5 mps 756 mmHg 94%
21:00 +28°C° 0 mm 5 mps 757 mmHg 97%
22:00 +27°C° 0.1 mm 5 mps 757 mmHg 97%
23:00 +27°C° 0.1 mm 5 mps 756 mmHg 97%

28 September, Monday

Time Temperature Precipitation Wind Pressure Humidity
00:00 +27°C° 0.1 mm 5 mps 756 mmHg 97%
01:00 +27°C° 0 mm 5 mps 756 mmHg 97%
02:00 +27°C° 0 mm 5 mps 755 mmHg 98%
03:00 +27°C° 0 mm 5 mps 755 mmHg 98%
04:00 +27°C° 0.2 mm 5 mps 755 mmHg 98%
05:00 +27°C° 0.2 mm 5 mps 755 mmHg 98%
06:00 +27°C° 0.2 mm 5 mps 756 mmHg 97%
07:00 +28°C° 0.8 mm 5 mps 756 mmHg 94%
08:00 +30°C° 0.8 mm 5 mps 757 mmHg 90%
09:00 +32°C° 0.8 mm 5 mps 757 mmHg 86%
10:00 +33°C° 0.8 mm 5 mps 757 mmHg 79%
11:00 +34°C° 0.8 mm 5 mps 757 mmHg 72%
12:00 +35°C° 0.8 mm 5 mps 756 mmHg 64%
13:00 +35°C° 0.2 mm 5 mps 756 mmHg 65%
14:00 +35°C° 0.2 mm 5 mps 755 mmHg 66%
15:00 +34°C° 0.2 mm 5 mps 755 mmHg 67%
16:00 +33°C° 0 mm 5 mps 755 mmHg 74%
17:00 +30°C° 0 mm 5 mps 755 mmHg 81%
18:00 +29°C° 0 mm 4 mps 755 mmHg 88%
19:00 +28°C° 0 mm 4 mps 756 mmHg 91%
20:00 +28°C° 0 mm 4 mps 756 mmHg 94%
21:00 +27°C° 0 mm 4 mps 757 mmHg 96%
22:00 +27°C° 0 mm 4 mps 757 mmHg 96%
23:00 +27°C° 0 mm 3 mps 757 mmHg 96%

29 September, Tuesday

Time Temperature Precipitation Wind Pressure Humidity
00:00 +27°C° 0 mm 3 mps 757 mmHg 97%
01:00 +27°C° 0 mm 3 mps 756 mmHg 97%
02:00 +26°C° 0 mm 3 mps 756 mmHg 97%
03:00 +26°C° 0 mm 3 mps 756 mmHg 98%
04:00 +26°C° 0 mm 2 mps 756 mmHg 98%
05:00 +26°C° 0 mm 2 mps 756 mmHg 98%
06:00 +26°C° 0 mm 2 mps 757 mmHg 98%
07:00 +29°C° 0 mm 1 mps 757 mmHg 85%
08:00 +32°C° 0 mm 1 mps 757 mmHg 72%
09:00 +34°C° 0 mm 1 mps 758 mmHg 59%
10:00 +35°C° 0.1 mm 2 mps 757 mmHg 66%
11:00 +34°C° 0.1 mm 2 mps 757 mmHg 73%
12:00 +32°C° 0.1 mm 2 mps 757 mmHg 80%
13:00 +32°C° 0.4 mm 2 mps 756 mmHg 79%
14:00 +32°C° 0.4 mm 2 mps 755 mmHg 78%
15:00 +32°C° 0.4 mm 2 mps 755 mmHg 76%
16:00 +31°C° 0.1 mm 2 mps 755 mmHg 82%
17:00 +29°C° 0.1 mm 2 mps 756 mmHg 87%
18:00 +28°C° 0.1 mm 2 mps 756 mmHg 92%
19:00 +27°C° 0 mm 2 mps 756 mmHg 92%
20:00 +27°C° 0 mm 2 mps 757 mmHg 93%
21:00 +26°C° 0 mm 3 mps 758 mmHg 94%
22:00 +26°C° 1.8 mm 3 mps 758 mmHg 95%
23:00 +26°C° 1.8 mm 3 mps 758 mmHg 97%

30 September, Wednesday

Time Temperature Precipitation Wind Pressure Humidity
00:00 +25°C° 1.8 mm 3 mps 758 mmHg 98%
01:00 +25°C° 1.6 mm 3 mps 757 mmHg 99%
02:00 +25°C° 1.6 mm 3 mps 757 mmHg 99%
03:00 +25°C° 1.6 mm 3 mps 757 mmHg 99%
04:00 +24°C° 0.1 mm 3 mps 757 mmHg 99%
05:00 +23°C° 0.1 mm 4 mps 758 mmHg 99%
06:00 +23°C° 0.1 mm 4 mps 758 mmHg 99%
07:00 +26°C° 0 mm 4 mps 758 mmHg 92%
08:00 +27°C° 0 mm 5 mps 759 mmHg 85%
09:00 +28°C° 0 mm 5 mps 759 mmHg 79%
10:00 +30°C° 0 mm 4 mps 759 mmHg 71%
11:00 +33°C° 0 mm 4 mps 758 mmHg 63%
12:00 +35°C° 0 mm 3 mps 758 mmHg 56%
13:00 +35°C° 0.1 mm 3 mps 757 mmHg 53%
14:00 +36°C° 0.1 mm 3 mps 756 mmHg 51%
15:00 +36°C° 0.1 mm 3 mps 756 mmHg 49%
16:00 +34°C° 0.1 mm 3 mps 756 mmHg 64%
17:00 +30°C° 0.1 mm 4 mps 756 mmHg 79%
18:00 +27°C° 0.1 mm 4 mps 757 mmHg 94%
19:00 +27°C° 0.1 mm 3 mps 757 mmHg 95%
20:00 +26°C° 0.1 mm 3 mps 758 mmHg 95%
21:00 +26°C° 0.1 mm 2 mps 759 mmHg 96%
22:00 +26°C° 1.2 mm 2 mps 758 mmHg 97%
23:00 +25°C° 1.2 mm 2 mps 758 mmHg 98%
Show more